Tracking 35274 objects as of 10-Sep-2026
HD Live streaming from Space Station
objects crossing your sky now

COSMOS 1375 DEB

Track COSMOS 1375 DEB now!
10-day predictions


NORAD ID: 17807
Int'l Code: 1982-055AZ
Launch date: June 6, 1982
Source: Commonwealth of Independent States (former USSR) (CIS)
Launch site: PLESETSK MISSILE AND SPACE COMPLEX (PKMTR)

Note: This is SATELLITE DEBRIS
Your satellite tracking list
Your tracking list is empty




NASA's NSSDC Master Catalog

Two Line Element Set (TLE):
1 17807U 82055AZ  26252.38524600  .00000476  00000-0  50591-3 0  9998
2 17807  65.8284 252.3409 0066193 275.0838 152.9035 13.82537123 51108
Source of the keplerian elements: AFSPC